sat.trackr.live / text

‹ back to catalog

STARLINK-4105

NORAD 53168 · 2022-083AN

PAYLOAD ACTIVE UNKNOWN

§ Identity

Operator
Country
US
Launch date
2022-07-17
Launch site
AFETR
Launch vehicle
Mass (kg)
RCS (m²)

Purposes: comms

External: N2YO · Heavens-Above · Gunter

§ Orbital elements

Epoch: 2026-05-24T14:26:03.550272Z

Period
95.44 min
Inclination
53.2129°
Eccentricity
0.0000857
Mean motion
15.08832267 rev/d
Perigee alt
539.2 km
Apogee alt
540.4 km
Semi-major
6,917.9 km
B*
6.7910e-6
RAAN
183.3387°
Arg perigee
82.2489°
Mean anomaly
277.8600°
Rev number
21,282

§ Raw data

STARLINK-41051 53168U 22083AN  26144.60142998 -.00000180  00000+0  67910-5 0  99912 53168  53.2129 183.3387 0000857  82.2489 277.8600 15.08832267212820

JSON: /api/v1/satellites/53168 · /tle

For live sub-satellite position, see the globe view (requires WebGL).

§ Visibility from observer

Set your observer location to see the next 7 days of passes ≥ 10°. The values pass through the URL so the page stays shareable.

No JS? Fill the form by hand. The geolocation button needs JavaScript.